This is the latest recevied weather packets stored in our database for station/object KB2FWP. If no packets are shown the sender has not sent any weather packets the latest 10 day(s).
| Time | Temp. | Humidity | Pressure | Rain* | Wind** | Luminosity | Snow |
|---|---|---|---|---|---|---|---|
| 1777581012 | 13.33° C | 86% | 1007.7 hPa | 0 mm | - | - | - |
| 1777580112 | 12.78° C | 86% | 1007.6 hPa | 0 mm | - | - | - |
| 1777579223 | 13.33° C | 87% | 1007.5 hPa | 0 mm | - | - | - |
| 1777578321 | 12.22° C | 89% | 1007.8 hPa | 0 mm | - | - | - |
| 1777577405 | 11.67° C | 90% | 1007.9 hPa | 0 mm | - | - | - |
| 1777576502 | 11.67° C | 90% | 1008.1 hPa | 0 mm | - | - | - |
| 1777575601 | 11.67° C | 90% | 1008.2 hPa | 0 mm | - | - | - |
| 1777574761 | 11.11° C | 91% | 1008.5 hPa | 0 mm | - | - | - |
| 1777573889 | 11.11° C | 90% | 1008.3 hPa | 0 mm | - | - | - |
| 1777572969 | 11.11° C | 90% | 1008.5 hPa | 0 mm | - | - | - |
| 1777572060 | 11.11° C | 90% | 1008.7 hPa | 0 mm | - | - | - |
| 1777571180 | 11.67° C | 90% | 1008.4 hPa | 0 mm | - | - | - |
| 1777570268 | 11.11° C | 90% | 1008.6 hPa | 0 mm | - | - | - |
| 1777569352 | 10.56° C | 91% | 1008.5 hPa | 0 mm | - | - | - |
| 1777568450 | 10.56° C | 91% | 1008.3 hPa | 0 mm | - | - | - |
| 1777567548 | 10.56° C | 91% | 1008.4 hPa | 0 mm | - | - | - |
| 1777566648 | 10.56° C | 91% | 1008.3 hPa | 0 mm | - | - | - |
| 1777565748 | 10.56° C | 91% | 1008.6 hPa | 0 mm | - | - | - |
| 1777564844 | 10.56° C | 92% | 1009 hPa | 0 mm | - | - | - |
| 1777563941 | 10.56° C | 92% | 1009 hPa | 0 mm | - | - | - |
| 1777563037 | 10° C | 93% | 1009.1 hPa | 0 mm | - | - | - |
| 1777562138 | 10° C | 93% | 1009.5 hPa | 0 mm | - | - | - |
| 1777561241 | 10° C | 93% | 1009.3 hPa | 0 mm | - | - | - |
| 1777560335 | 10° C | 94% | 1009.2 hPa | 0 mm | - | - | - |
| 1777559434 | 10° C | 94% | 1009 hPa | 0 mm | - | - | - |
* Rain latest hour (hover to see other rain measurements)
** Current wind speed in m/s (hover to see current wind gust speed)